Dewpoint
45 45 43 40 41 45 46 45 46 47 45 45 44 43 42 42 38 38 38 38 40 42 42 41 43 41 40 42 44 44 43 46 48 47 48 49 50 49 49 50 51 52 51 50 49 48 49 49 50 52 54 55 56 56 56 56 55 56 56 55 56 55 56 57 57 60 62 64 63 61 60 59 58 56
46 46 46 45 41 46 44 43 46 47 46 44 43 43 44 43 41 40 37 38 41 42 42 43 41 40 40 41 44 44 42 48 47 45 45 45 45 48 47 47 49 50 50 50 50 49 48 49 51 53 53 53 53 53 53 53 53 53 54 55 55 55 56 55 57 59 61 61 61 60 59 58 57 56
46 44 44 46 43 47 46 45 46 46 46 45 43 43 43 45 44 42 40 35 39 44 39 42 43 41 41 42 43 44 44 45 45 44 44 41 46 48 45 46 47 50 50 50 50 49 49 48 49 49 51 53 53 53 53 53 53 53 54 53 54 57 58 57 56 59 60 61 60 60 59 58 57 57
46 44 42 44 42 43 41 42 45 46 46 46 42 43 42 42 44 44 40 37 37 41 41 41 41 40 42 43 42 42 42 42 46 42 42 42 47 43 43 45 46 46 48 49 49 49 49 49 49 49 49 49 50 50 51 51 52 53 52 53 54 55 57 58 57 59 60 59 59 60 58 58 57 57
44 45 44 42 42 43 42 43 40 40 41 43 43 45 43 41 42 41 39 37 38 39 43 43 41 42 43 41 42 40 40 40 40 43 41 42 43 42 43 44 45 44 44 44 46 48 48 48 48 48 48 48 48 49 50 51 52 51 50 51 51 52 56 58 58 58 60 60 59 58 57 57 57 57
45 44 43 44 43 44 40 41 36 40 39 37 35 38 42 41 41 43 41 39 39 36 39 40 42 42 44 39 38 38 38 39 40 39 38 38 40 39 40 41 43 43 43 43 42 44 45 46 46 46 46 47 47 48 48 48 48 49 50 50 49 52 54 56 57 57 57 57 57 57 57 57 57 57
44 43 43 42 44 44 36 40 42 43 42 40 37 39 41 39 40 41 41 39 37 38 38 42 37 37 39 38 36 37 38 39 38 37 37 37 37 38 38 38 39 40 41 42 42 42 42 43 43 42 43 44 45 45 46 47 47 47 48 48 48 48 49 49 51 53 54 56 57 57 56 56 58 59
42 41 39 41 44 43 37 39 41 43 42 41 41 40 40 39 39 41 40 40 38 40 37 38 36 37 37 37 36 37 36 36 37 37 36 36 36 37 38 39 39 40 42 43 43 43 43 43 42 42 42 43 43 44 44 46 46 46 47 48 47 47 47 47 47 48 51 55 56 56 55 56 58 60
41 41 39 40 44 42 39 41 41 41 42 41 39 36 35 35 39 39 38 38 37 35 33 35 39 39 35 35 35 36 35 36 37 37 36 36 37 39 40 40 40 42 42 43 44 44 43 42 43 43 43 44 44 43 44 44 46 47 47 48 48 47 46 46 46 47 48 48 49 54 55 55 59 60
42 41 41 41 44 42 39 40 42 42 42 38 35 35 34 33 36 36 36 36 35 33 33 33 33 35 32 32 34 33 35 37 37 36 36 36 37 39 39 40 40 42 42 44 43 43 42 43 43 44 44 44 44 45 45 45 45 46 47 47 47 47 47 46 46 46 46 46 46 48 52 55 58 60
43 41 41 42 44 42 40 41 42 41 39 38 36 38 36 35 34 34 35 33 30 31 30 32 33 31 33 33 32 32 35 34 37 37 36 35 36 39 40 40 39 42 42 41 40 40 40 43 43 43 43 43 45 45 46 47 46 46 46 46 46 46 46 46 46 46 45 46 46 46 46 49 54 58
43 42 43 43 43 42 41 41 41 36 33 34 33 37 36 35 32 33 34 32 30 29 30 30 29 32 33 32 34 34 33 32 33 36 37 36 37 38 39 39 39 42 39 37 37 38 39 39 40 41 41 42 44 44 46 48 48 47 46 46 46 46 45 46 46 46 46 46 46 46 46 46 47 53
42 42 42 41 41 45 46 43 42 38 36 30 25 33 38 38 32 31 33 33 30 30 31 30 32 32 31 32 33 32 32 32 34 37 37 36 37 38 37 35 39 41 35 35 34 34 37 37 39 39 39 40 44 43 45 46 47 47 46 46 46 46 46 46 46 46 46 46 46 45 45 45 45 45
41 40 40 43 47 46 44 41 37 35 37 38 32 29 30 35 31 30 28 29 32 32 30 30 31 30 30 30 32 32 32 34 36 34 35 35 36 35 34 34 37 40 34 33 33 33 35 37 37 37 37 40 42 43 46 46 46 46 45 46 46 46 45 45 46 46 46 46 46 45 45 45 45 44
41 40 40 43 45 43 41 36 33 34 36 37 37 37 37 38 32 30 28 30 31 30 31 32 31 30 30 30 31 31 32 34 34 34 35 35 35 34 33 32 33 39 34 32 32 32 35 36 35 35 37 39 40 42 46 45 44 44 45 45 45 45 45 46 46 45 46 45 45 45 45 45 45 44
39 39 40 40 40 35 32 29 30 33 35 35 35 35 36 36 37 38 32 32 29 30 28 29 30 31 30 30 31 32 33 33 33 33 34 34 33 33 32 32 31 34 35 32 32 32 35 37 37 36 37 37 39 43 45 44 44 45 45 45 44 45 45 45 45 45 45 45 45 45 45 44 44 43
38 38 40 39 39 36 41 39 29 30 32 36 35 34 35 35 35 33 33 35 34 31 29 30 30 30 31 30 32 33 34 35 33 34 34 34 34 33 32 31 31 31 33 32 31 30 32 35 35 35 36 37 39 42 44 43 44 44 44 43 43 43 43 44 44 44 43 43 44 43 44 43 43 42
38 40 40 39 40 39 41 36 31 32 32 34 33 32 32 33 36 36 35 34 35 36 33 31 29 32 34 32 33 35 35 34 35 35 34 34 33 32 31 32 32 32 35 31 32 31 31 33 34 32 34 37 39 41 42 43 43 43 43 43 43 43 43 43 42 42 42 41 42 42 42 41 41 41
41 42 43 40 39 39 40 40 37 35 34 34 35 33 32 32 33 34 34 35 35 36 35 33 32 33 34 34 35 35 36 36 36 36 35 34 33 33 33 32 32 31 33 34 32 29 31 33 32 32 33 37 36 40 41 42 42 42 42 42 42 42 42 42 42 42 42 42 42 42 41 41 41 40
42 41 41 42 41 41 41 41 38 38 37 35 34 34 34 35 37 36 38 38 38 38 36 35 35 36 36 37 37 37 35 35 35 36 36 33 31 30 29 27 29 30 33 34 32 31 31 32 32 31 34 35 34 40 41 41 42 42 42 41 41 41 41 41 41 41 42 42 42 42 42 41 41 40
42 42 41 41 40 39 35 36 34 35 38 37 35 34 35 36 35 35 35 37 36 35 35 34 34 34 34 34 35 35 35 35 35 34 31 27 29 28 26 27 27 27 30 33 33 32 31 32 32 33 33 35 35 41 41 41 41 41 41 41 41 41 41 41 41 42 42 42 42 42 42 41 41 41
42 41 46 44 37 35 35 34 35 36 37 34 34 33 32 32 32 32 34 34 34 34 34 33 33 33 33 34 34 33 34 34 35 31 28 28 29 28 28 26 27 28 30 31 33 32 32 33 33 33 34 34 35 41 42 41 41 42 41 41 41 41 41 41 41 41 42 42 41 42 41 41 41 43
35 34 37 40 37 35 35 33 33 33 33 31 31 31 30 31 30 29 31 31 30 30 30 30 30 30 32 33 32 33 34 34 35 33 31 30 30 28 29 29 29 28 28 32 35 30 31 32 31 33 33 31 34 37 40 40 41 42 42 42 41 41 41 41 41 41 41 41 40 41 40 41 42 43
32 32 33 34 33 33 32 32 32 32 32 31 32 31 29 28 28 30 30 33 31 30 30 30 30 32 31 31 31 30 31 33 37 34 32 31 31 30 29 30 30 29 29 30 34 31 31 31 32 33 33 32 31 33 36 40 40 40 39 40 40 41 41 41 40 41 40 40 40 40 40 40 41 43
32 31 32 33 34 32 32 32 32 33 33 33 33 31 28 29 31 33 29 32 34 30 32 32 31 31 31 31 30 30 30 31 32 33 32 33 32 31 31 29 29 29 30 32 35 32 31 32 31 32 32 32 33 34 34 35 35 38 41 41 41 42 41 40 40 40 40 40 39 39 39 40 40 41
32 31 31 31 33 33 33 32 32 32 32 33 37 33 32 32 33 32 34 31 30 29 30 29 30 30 30 29 30 30 31 32 33 32 31 31 31 31 31 30 29 29 29 32 34 31 31 31 31 32 33 33 33 33 33 33 33 35 40 42 41 41 40 40 39 39 39 39 38 38 37 39 39 39
33 32 32 34 34 33 33 32 32 32 32 33 33 33 33 33 33 33 31 31 29 28 29 29 29 30 30 30 30 30 30 31 31 31 31 31 31 31 33 33 32 31 31 32 34 34 32 31 32 32 32 32 32 31 32 31 32 33 37 39 40 39 39 37 37 38 38 38 37 40 39 38 38 38
35 32 33 36 34 33 33 32 32 32 32 32 32 33 33 33 33 31 31 29 29 29 29 29 29 29 29 30 30 30 31 31 31 31 31 31 31 31 32 32 33 33 33 33 32 32 32 31 31 32 32 32 31 30 30 32 33 33 34 35 38 38 38 37 37 38 38 36 36 37 38 40 40 39
35 35 34 34 33 33 34 34 33 33 33 33 33 33 33 35 31 30 29 28 28 28 28 29 29 29 30 30 31 31 31 32 32 32 33 33 33 33 33 33 33 33 35 35 34 33 33 33 32 32 32 32 32 32 33 32 33 34 34 34 33 37 37 37 36 35 36 35 35 36 37 38 39 39
33 33 33 33 33 33 33 32 31 31 32 33 33 33 34 30 29 29 28 28 28 28 29 29 29 29 29 29 29 30 31 31 31 31 32 32 32 32 33 32 33 34 35 35 35 34 34 34 34 34 33 33 33 33 33 34 34 35 36 35 35 36 36 36 35 34 36 35 35 36 37 39 40 38
33 33 34 33 33 32 32 32 33 32 33 31 29 27 28 28 28 28 27 27 28 29 29 29 29 29 30 30 30 30 31 31 31 31 31 31 31 32 32 31 32 32 33 34 35 35 35 35 35 35 35 34 35 34 34 35 34 34 37 38 37 35 36 38 37 35 35 35 34 35 37 38 40 40
33 31 32 31 30 30 29 29 28 28 27 27 27 27 27 27 28 31 32 32 29 29 29 30 30 31 31 31 31 31 31 31 31 32 32 31 31 31 31 31 31 32 33 34 36 37 36 37 36 36 36 37 37 36 37 38 37 38 38 39 38 39 38 38 38 38 38 37 36 36 37 39 40 40
31 29 29 29 28 27 26 25 26 26 26 26 27 27 28 28 28 28 28 30 30 31 31 30 30 31 31 31 31 32 31 32 32 31 31 31 31 31 32 32 32 32 32 32 33 34 35 36 37 38 39 39 39 39 39 37 37 38 38 38 39 39 39 39 39 39 38 38 37 36 37 38 39 40
28 27 27 25 24 24 24 24 24 24 24 25 26 27 29 27 28 29 29 29 30 30 30 30 31 31 31 31 32 32 32 32 32 32 32 31 31 31 31 32 32 32 32 32 33 33 34 35 35 36 37 37 39 40 39 37 36 36 37 38 38 38 39 39 39 39 39 38 37 36 36 37 38 39
29 28 26 23 23 23 23 24 24 24 25 26 26 27 27 28 29 29 30 30 30 30 30 30 31 31 31 31 32 32 32 32 32 32 32 32 32 32 32 32 32 32 32 32 32 33 33 34 35 35 36 37 36 37 38 36 35 35 36 38 39 38 38 39 38 38 38 37 37 36 35 36 36 38
27 24 23 22 23 23 24 25 24 25 25 27 27 28 30 31 31 31 31 31 31 30 30 30 30 31 31 31 31 31 31 31 32 32 32 32 32 32 32 32 32 32 32 32 32 33 33 33 34 34 33 33 33 32 33 38 38 37 37 35 37 38 38 38 37 38 37 37 37 36 35 35 35 36
23 22 22 23 24 24 23 24 26 27 27 28 29 30 31 32 32 31 31 30 30 30 30 31 31 31 31 31 31 31 31 31 31 31 31 32 32 32 32 32 32 32 32 32 33 33 33 33 34 34 33 32 32 32 32 36 37 38 38 37 35 37 38 37 36 36 36 37 36 36 35 34 34 35
22 23 23 24 25 26 26 26 26 27 28 28 30 30 30 30 30 30 30 29 30 30 31 31 31 31 31 31 31 31 31 31 31 31 31 31 31 31 31 31 31 32 32 32 33 33 34 34 34 34 34 32 31 32 32 33 34 35 38 39 35 35 36 37 35 35 35 36 36 35 34 34 34 34
25 24 25 24 26 26 25 26 26 28 29 29 29 30 30 29 29 29 30 30 31 31 31 31 31 31 31 31 31 31 30 30 30 30 30 31 31 31 31 31 31 32 32 32 33 34 34 34 34 34 34 33 33 33 33 33 33 34 34 37 38 35 35 36 36 35 35 34 33 33 33 34 34 33
25 26 25 26 26 26 27 27 28 28 29 30 31 31 31 30 30 30 30 30 31 31 31 31 31 31 31 31 31 31 31 31 30 30 30 31 31 31 31 31 31 31 31 31 31 32 34 34 35 35 35 35 35 35 35 34 34 34 34 34 36 38 36 35 35 34 34 34 34 32 32 33 32 33
25 26 26 26 27 27 28 28 28 29 31 31 31 31 31 31 30 30 30 30 31 31 30 30 31 31 31 31 31 31 30 30 30 30 31 31 31 31 31 31 31 31 31 30 31 32 33 34 35 33 35 35 34 34 34 33 33 34 34 33 35 35 36 37 37 35 33 34 33 32 32 31 31 32
25 25 26 27 27 28 28 28 29 31 31 32 32 31 31 30 30 31 31 31 31 31 30 30 31 31 31 31 31 31 30 30 30 30 30 30 30 31 31 31 31 31 31 30 31 31 34 35 34 34 35 34 34 33 31 32 32 33 33 34 33 34 36 37 37 36 35 34 33 32 31 31 32 30
25 25 26 27 27 27 27 28 29 30 31 31 31 31 31 31 30 30 30 30 30 30 30 31 31 31 31 31 31 31 30 30 30 30 30 31 31 31 31 31 31 31 31 31 32 32 33 33 34 34 34 33 33 33 32 33 33 33 33 33 33 33 34 35 35 35 35 35 34 33 32 31 30 28
25 25 26 26 26 27 27 27 28 29 30 30 30 31 31 31 31 31 30 30 30 30 31 31 31 31 31 31 31 31 31 31 31 31 31 31 31 31 31 31 31 32 32 32 32 32 33 33 33 33 33 33 33 33 33 33 33 33 33 33 33 33 33 33 33 33 33 33 34 34 34 33 33 32
25 25 26 25 24 25 25 27 28 29 30 30 30 31 31 31 31 31 30 30 30 30 31 31 31 31 31 31 31 31 31 31 31 31 31 31 31 31 32 32 32 32 32 32 32 32 33 33 33 33 33 33 34 34 34 34 33 33 32 32 32 32 32 32 32 32 32 32 33 33 33 33 33 32